SCP
0 0 0 0 0 0 0 0 0 -0 0 0 0 0 0 0 0 0 0 0 0 0 0 0 0 0 0 0 0 0 0 0 0 0 0 0 0 0 0 0 0 0 0 0
0 0 0 0 0 -0 -0 -0 -0 0 0 0 0 0 0 0 0 0 0 0 0 0 0 0 0 0 0 0 0 0 0 0 0 0 0 0 0 0 0 0 0 0 0 0
0 0 0 0 0 -0 0 0 -0 0 0 0 0 0 0 0 0 0 0 0 0 0 0 0 0 0 0 0 0 0 0 0 0 0 0 0 0 0 0 0 0 0 0 0
0 0 0 0 -0 -0 -0 0 -0 -0 0 0 0 0 0 0 0 0 0 0 0 0 0 0 0 0 0 0 0 0 0 0 0 0 0 0 0 0 0 0 0 0 0 0
0 0 0 0 -0 -0 -0 0 -0 -0 -0 0 0 0 0 0 0 0 0 0 0 0 0 0 0 0 0 0 0 0 0 0 0 0 0 0 0 0 0 0 0 0 0 0
0 0 0 -0 0 -0 -0 0 0 -0 -0 0 0 0 0 0 0 0 0 0 0 0 0 0 0 0 0 0 0 0 0 0 0 0 0 0 0 0 0 0 0 0 0 0
0 0 -0 0 -0 0 0 0 0 0 0 0 0 0 0 0 0 0 0 0 0 0 0 0 0 0 0 0 0 0 0 0 0 0 0 0 0 0 0 0 0 0 0 0
0 0 0 0 0 0 0 0 0 0 0 0 0 0 0 0 0 0 0 0 0 0 0 0 0 0 0 0 0 0 0 0 0 0 0 0 0 0 0 0 0 0 0 0
0 0 0 0 0 -0 0 0 0 0 0 0 0 0 0 0 0 0 0 0 0 0 0 0 0 0 0 0 0 0 0 0 0 0 0 0 0 0 0 0 0 0 0 0
0 0 0 -0 -0 -0 0 -0 0 0 0 0 0 0 0 0 0 0 0 0 0 0 0 0 0 0 0 0 0 0 0 0 0 0 0 0 0 0 0 0 0 0 0 0
0 0 -0 0 -0 -0 -0 -0 -0 0 0 0 0 0 0 0 0 0 0 0 0 0 0 0 0 0 0 0 0 0 0 0 0 0 0 0 0 0 0 0 0 0 0 0
0 0 0 0 -0 -0 -0 -0 0 -0 0 0 0 0 0 0 0 0 0 0 0 0 0 0 0 0 0 0 0 0 0 0 0 0 0 0 0 0 0 0 0 0 0 0
0 0 -0 -0 -0 -0 -0 -0 -0 -0 0 0 0 0 0 0 0 0 0 0 0 0 0 0 0 0 0 0 0 0 0 0 0 0 0 0 0 0 0 0 0 0 0 0
-0 -0 -0 -0 -0 -0 -0 0 -0 0 0 0 0 0 0 0 0 0 0 0 0 0 0 0 0 0 0 0 0 0 0 0 0 0 0 0 0 0 0 0 0 0 0 0
0 0 -0 -0 -0 -0 -0 -0 -0 0 0 0 0 0 0 0 0 0 0 0 0 0 0 0 0 0 0 0 0 0 0 0 0 0 0 0 0 0 0 0 0 0 0 0
-0 -0 -0 -0 -0 -0 -0 -0 -0 0 0 0 0 0 0 0 0 0 0 0 0 0 0 0 0 0 0 0 0 0 0 0 0 0 0 0 0 0 0 0 0 0 0 0
-0 0 -0 -0 -0 -0 -0 -0 -0 -0 -0 -0 0 0 0 0 0 0 0 0 0 0 0 0 0 0 0 0 0 0 0 0 0 0 0 0 0 0 0 0 0 0 0 0
-0 -0 -0 -0 -0 -0 -0 -0 -0 -0 -0 -0 0 0 0 0 0 0 0 0 0 0 0 0 0 0 0 0 0 0 0 0 0 0 0 0 0 0 0 0 0 0 0 0
-0 -0 -0 -0 -0 -0 -0 -0 -0 -0 -0 -0 -0 0 0 0 0 0 0 0 0 0 0 0 0 0 0 0 0 0 0 0 0 0 0 0 0 0 0 0 0 0 0 0
-0 0 -0 -0 -0 -0 -0 -0 -0 -0 -0 -0 -0 0 0 0 0 0 0 0 0 0 0 0 0 0 0 0 0 0 0 0 0 0 0 0 0 0 0 0 0 0 0 0
-0 -0 -0 -0 -0 -0 -0 -0 -0 -0 -0 -0 -0 0 0 0 0 0 0 0 0 0 0 0 0 0 0 0 0 0 0 0 0 0 0 0 0 0 0 0 0 0 0 0
-0 -0 -0 -0 -0 -0 0 0 -0 -0 -0 -0 0 0 0 0 0 0 0 0 0 0 0 0 0 0 0 0 0 0 0 0 0 0 0 0 0 0 0 0 0 0 0 0
0 -0 -0 -0 -0 -0 0 0 0 -0 -0 -0 0 0 0 0 0 0 0 0 0 0 0 0 0 0 0 0 0 0 0 0 0 0 0 0 0 0 0 0 0 0 0 0
-0 0 0 0 -0 -0 -0 0 0 0 0 0 0 0 0 0 0 0 0 0 0 0 0 0 0 0 0 0 0 0 0 0 0 0 0 0 0 0 0 0 0 0 0 0
-0 -0 -0 -0 0 0 0 0 0 0 0 0 0 0 0 0 0 0 0 0 0 0 0 0 0 0 0 0 0 0 0 0 0 0 0 0 0 0 0 0 0 0 0 0
-0 0 0 0 0 0 0 0 0 0 0 0 0 0 0 0 0 0 0 0 0 0 0 0 0 0 0 0 0 0 0 0 0 0 0 0 0 0 0 0 0 0 0 0
0 0 0 0 0 0 0 0 0 0 0 0 0 0 0 0 0 0 0 0 0 0 0 0 0 0 0 0 0 0 0 0 0 0 0 0 0 0 0 0 0 0 0 0
Wind_Speed_500mb
9 15 16 12 20 20 11 9 8 23 18 22 23 28 43 44 45 44 41 38 25 14 8 15 13 13 13 22 26 32 35 37 43 45 44 52 56 55 51 55 49 49 51 49
12 20 21 16 16 25 26 26 23 25 10 13 37 40 41 47 47 44 41 33 24 13 15 17 16 14 15 18 26 35 35 36 44 41 44 59 65 58 59 55 51 49 47 51
3 7 12 11 5 14 10 11 29 14 11 33 18 18 24 38 45 44 37 31 21 18 23 20 14 10 13 20 28 35 33 38 43 42 48 59 67 65 61 59 54 50 51 53
6 6 6 10 9 19 27 15 28 32 26 33 39 43 43 40 44 40 33 26 23 25 21 17 13 12 17 23 30 31 33 33 46 40 49 56 66 67 60 60 61 54 56 60
8 5 3 6 7 15 17 5 32 30 40 52 62 60 38 32 32 33 28 27 30 24 20 13 12 19 20 24 28 34 38 38 44 41 48 54 62 66 62 64 68 58 59 65
5 9 12 14 9 55 29 7 27 60 54 59 33 7 11 29 28 30 32 34 27 23 13 10 13 18 24 26 32 37 41 34 39 41 45 53 56 61 62 66 71 59 63 70
6 5 8 3 38 21 10 11 42 45 53 38 10 10 51 38 36 37 37 30 24 12 9 12 10 19 19 27 31 32 35 33 36 38 44 50 53 59 62 66 73 65 69 73
6 8 2 16 11 13 21 34 50 53 52 37 56 58 50 43 46 41 35 29 13 9 12 10 11 14 19 23 19 25 30 33 37 37 40 48 51 55 60 64 74 70 73 75
4 6 9 5 29 47 58 61 53 58 54 62 62 57 54 53 48 36 31 22 7 12 15 16 18 17 16 23 25 27 28 35 40 34 39 45 51 54 59 64 76 70 74 77
8 12 26 60 61 58 48 51 51 52 57 53 63 60 58 51 40 39 30 13 8 10 13 18 18 17 21 23 20 22 24 33 39 39 41 46 49 51 54 60 71 68 70 74
12 21 47 35 57 55 55 56 56 50 50 53 61 61 55 49 45 32 18 15 7 6 14 18 16 17 21 25 24 25 25 31 37 40 41 44 48 50 50 52 61 62 59 61
9 45 29 43 58 52 58 58 55 57 55 49 54 57 52 46 31 24 20 12 9 15 16 17 14 16 26 27 29 29 23 31 38 39 39 44 48 47 46 46 53 58 54 56
25 41 58 68 63 50 59 59 54 50 50 59 53 48 40 39 30 24 18 16 16 17 16 18 17 15 20 25 29 32 27 32 37 39 40 46 49 49 51 46 49 55 57 54
69 77 64 70 69 56 61 59 52 53 50 53 51 39 36 34 30 21 21 21 18 15 16 17 14 13 17 19 25 30 31 33 37 39 40 44 46 47 50 52 55 60 59 56
77 49 76 72 67 65 62 60 61 61 59 55 42 35 32 33 28 27 24 21 18 14 12 9 7 11 13 17 21 26 31 36 37 37 39 41 44 46 50 52 54 59 62 63
50 67 79 77 73 70 64 61 61 63 56 51 43 38 34 29 29 28 27 22 14 13 11 8 9 11 12 14 19 23 28 34 36 36 38 42 45 46 49 52 57 60 63 66
82 63 77 76 76 71 63 55 49 57 54 49 42 40 34 32 31 31 27 22 17 15 13 12 11 11 9 14 20 25 29 32 35 35 38 40 43 46 49 52 54 57 58 58
54 69 71 73 76 70 62 52 50 51 47 43 43 39 34 31 30 30 26 23 19 16 15 14 13 12 11 15 21 26 29 31 33 35 35 37 40 44 49 52 55 57 59 63
51 66 64 65 63 60 55 53 49 45 43 42 42 39 33 30 29 29 27 23 19 15 18 15 14 12 12 17 22 25 26 28 29 31 31 33 40 46 53 56 59 62 67 69
60 60 62 63 58 50 52 49 45 44 42 43 45 42 40 35 31 28 27 23 20 15 13 11 8 10 13 17 21 23 24 26 27 29 32 37 44 48 51 55 59 62 66 68
62 62 64 61 55 47 43 46 46 46 47 45 41 39 37 36 31 25 26 24 21 17 12 8 7 9 10 13 16 18 20 23 24 29 35 39 41 45 49 52 58 62 64 66
64 64 63 58 54 52 47 44 43 44 46 46 41 39 39 37 35 29 23 14 15 16 11 7 4 4 7 10 12 14 17 20 24 30 33 36 39 43 48 52 54 56 58 60
63 60 59 57 55 52 50 47 44 43 46 47 43 41 35 30 28 27 24 22 18 15 12 7 5 3 4 6 9 12 14 17 23 26 30 33 36 40 44 46 48 50 53 55
63 62 58 56 54 53 55 54 46 44 40 39 35 33 35 36 32 28 21 19 20 15 13 11 7 5 4 5 7 9 12 16 20 22 27 30 35 35 37 40 43 45 47 49
63 63 59 57 56 55 54 53 51 49 46 42 41 38 33 26 17 20 22 21 20 17 15 15 11 7 7 6 7 9 11 14 17 21 25 28 29 30 32 35 38 40 43 45
65 63 58 54 51 53 53 53 51 51 50 48 44 40 38 35 28 23 24 22 21 21 19 17 14 11 10 9 10 9 10 12 15 20 24 24 24 25 28 31 32 34 38 40
64 59 56 54 51 50 49 48 48 48 46 43 39 40 38 34 30 26 24 26 26 25 23 22 19 16 14 13 12 11 12 12 15 18 19 18 18 20 22 25 28 30 32 32
Wind_Direction_500mb
109 104 93 98 77 52 61 124 126 160 143 161 156 156 162 161 163 161 166 169 162 143 85 92 65 51 20 6 3 359 360 1 5 6 12 5 1 355 353 351 348 345 344 344
44 77 85 78 84 87 86 88 86 112 88 141 154 157 160 164 156 144 158 154 145 124 103 90 69 49 22 12 3 355 1 11 8 16 11 7 5 4 360 1 359 355 354 348
62 98 83 36 337 90 98 97 130 144 152 127 104 115 149 143 154 150 144 138 123 102 94 84 77 61 23 6 352 353 10 11 23 16 12 10 7 7 10 9 5 5 4 0
147 37 62 251 103 118 110 112 106 103 115 109 106 99 118 140 145 138 135 126 113 101 102 100 76 27 356 347 352 9 13 26 25 17 12 9 6 10 14 14 13 11 11 9
116 91 325 102 171 140 129 87 130 124 125 122 118 112 83 121 125 125 121 112 112 112 102 83 17 2 357 1 22 35 37 28 23 15 12 9 9 12 15 15 15 15 15 14
87 127 194 225 154 126 109 111 173 143 151 155 156 94 157 134 125 119 116 115 116 111 94 21 24 2 6 41 38 36 29 20 18 13 15 10 11 12 15 14 12 16 18 19
112 129 302 181 146 129 97 216 164 160 157 158 110 145 146 139 124 121 122 119 124 119 47 47 21 2 42 45 39 29 23 16 12 11 15 13 14 14 12 11 10 19 20 21
87 85 206 160 95 138 144 119 151 160 160 127 124 129 135 134 129 130 129 135 133 65 62 36 13 24 64 39 32 25 17 16 14 11 15 17 15 14 12 12 12 18 18 20
140 206 344 158 130 134 143 133 132 137 140 137 134 136 135 131 132 137 144 146 113 57 61 66 73 76 57 35 18 7 6 19 19 23 19 19 15 14 16 14 14 17 17 18
85 5 83 113 126 132 134 131 134 132 136 137 134 136 132 134 141 145 152 142 91 53 54 81 79 58 41 23 15 10 14 21 21 23 20 19 18 16 19 18 16 20 16 17
74 101 96 110 133 132 127 130 132 134 136 135 135 137 138 143 146 148 150 145 141 53 90 97 80 53 34 25 21 23 17 20 21 20 18 20 21 17 23 26 25 26 20 21
198 172 136 148 144 143 138 141 141 138 137 138 141 142 146 148 151 148 148 146 134 113 102 96 69 50 39 30 26 26 25 20 18 18 16 17 18 25 29 32 32 35 31 27
142 154 147 147 148 149 145 148 147 143 144 146 148 150 153 148 148 146 138 133 128 115 108 92 82 66 50 29 22 28 24 20 18 18 15 16 18 21 24 35 37 35 35 34
146 141 133 152 149 152 149 149 147 146 149 153 155 157 151 149 146 145 134 130 126 118 104 77 70 66 42 28 16 26 26 20 19 17 17 18 21 25 27 31 31 33 36 34
149 159 156 153 151 150 151 152 152 153 157 158 160 155 156 150 148 144 139 133 126 114 96 69 78 61 30 19 15 20 22 19 16 15 16 19 24 30 33 35 37 33 32 38
151 150 150 152 153 155 158 161 159 161 164 161 160 157 154 153 148 142 134 129 126 126 112 96 78 62 33 21 18 19 16 14 15 15 19 23 28 33 35 37 38 35 32 31
140 137 153 155 159 162 168 171 169 165 165 164 165 161 159 156 149 142 139 133 127 118 108 96 78 69 51 23 15 14 10 14 17 23 26 29 32 34 36 39 39 38 35 32
177 171 171 166 165 168 171 171 169 167 168 169 168 165 164 160 150 143 140 131 127 121 116 105 85 83 57 27 14 14 14 17 23 30 31 34 37 40 43 45 46 46 44 43
176 170 170 168 170 173 170 168 170 170 170 171 169 163 159 155 151 145 142 137 130 131 125 118 99 77 44 28 17 20 20 24 31 37 38 40 45 50 55 55 52 50 48 45
169 169 170 171 174 172 167 170 170 171 172 171 169 167 162 160 158 154 148 144 141 143 129 121 105 59 39 27 20 22 28 34 39 44 48 54 59 59 57 55 54 52 50 49
167 170 172 172 170 171 172 170 173 172 171 176 176 171 167 163 161 158 157 161 156 152 147 132 84 51 33 17 25 33 39 44 47 57 64 64 61 60 58 57 57 56 53 52
170 172 173 172 173 171 173 174 175 174 171 171 173 175 174 169 165 160 157 174 160 157 167 159 116 53 30 36 40 46 48 53 63 71 70 66 63 63 62 61 58 55 53 51
173 174 174 175 176 173 170 173 175 178 175 176 178 181 179 176 171 176 176 169 169 172 178 170 148 108 62 56 58 59 62 71 76 76 73 70 68 67 65 61 56 52 49 47
175 175 176 176 177 176 173 171 174 176 179 176 178 180 180 178 176 174 185 180 176 185 182 180 177 154 125 101 84 81 87 83 81 78 77 76 76 71 64 58 53 49 46 44
177 177 178 179 181 180 177 173 172 175 177 177 178 183 184 184 200 196 184 186 193 195 192 193 197 190 166 149 129 114 103 94 88 87 85 84 80 72 62 55 49 46 45 43
179 181 182 186 185 182 181 181 182 181 182 183 184 187 188 193 195 196 200 198 203 204 203 206 209 206 192 175 158 137 121 111 101 100 97 89 79 68 58 51 47 43 42 41
183 184 183 182 186 188 189 190 190 190 189 193 195 191 194 198 201 209 213 212 210 213 212 213 211 210 202 193 178 163 146 135 124 116 108 97 80 68 57 48 43 39 38 38
Wind_Speed_850mb
9 15 16 12 20 20 11 9 8 23 18 22 23 28 43 44 45 44 41 38 25 14 8 15 13 13 13 22 26 32 35 37 43 45 44 52 56 55 51 55 49 49 51 49
12 20 21 16 16 25 26 26 23 25 10 13 37 40 41 47 47 44 41 33 24 13 15 17 16 14 15 18 26 35 35 36 44 41 44 59 65 58 59 55 51 49 47 51
3 7 12 11 5 14 10 11 29 14 11 33 18 18 24 38 45 44 37 31 21 18 23 20 14 10 13 20 28 35 33 38 43 42 48 59 67 65 61 59 54 50 51 53
6 6 6 10 9 19 27 15 28 32 26 33 39 43 43 40 44 40 33 26 23 25 21 17 13 12 17 23 30 31 33 33 46 40 49 56 66 67 60 60 61 54 56 60
8 5 3 6 7 15 17 5 32 30 40 52 62 60 38 32 32 33 28 27 30 24 20 13 12 19 20 24 28 34 38 38 44 41 48 54 62 66 62 64 68 58 59 65
5 9 12 14 9 55 29 7 27 60 54 59 33 7 11 29 28 30 32 34 27 23 13 10 13 18 24 26 32 37 41 34 39 41 45 53 56 61 62 66 71 59 63 70
6 5 8 3 38 21 10 11 42 45 53 38 10 10 51 38 36 37 37 30 24 12 9 12 10 19 19 27 31 32 35 33 36 38 44 50 53 59 62 66 73 65 69 73
6 8 2 16 11 13 21 34 50 53 52 37 56 58 50 43 46 41 35 29 13 9 12 10 11 14 19 23 19 25 30 33 37 37 40 48 51 55 60 64 74 70 73 75
4 6 9 5 29 47 58 61 53 58 54 62 62 57 54 53 48 36 31 22 7 12 15 16 18 17 16 23 25 27 28 35 40 34 39 45 51 54 59 64 76 70 74 77
8 12 26 60 61 58 48 51 51 52 57 53 63 60 58 51 40 39 30 13 8 10 13 18 18 17 21 23 20 22 24 33 39 39 41 46 49 51 54 60 71 68 70 74
12 21 47 35 57 55 55 56 56 50 50 53 61 61 55 49 45 32 18 15 7 6 14 18 16 17 21 25 24 25 25 31 37 40 41 44 48 50 50 52 61 62 59 61
9 45 29 43 58 52 58 58 55 57 55 49 54 57 52 46 31 24 20 12 9 15 16 17 14 16 26 27 29 29 23 31 38 39 39 44 48 47 46 46 53 58 54 56
25 41 58 68 63 50 59 59 54 50 50 59 53 48 40 39 30 24 18 16 16 17 16 18 17 15 20 25 29 32 27 32 37 39 40 46 49 49 51 46 49 55 57 54
69 77 64 70 69 56 61 59 52 53 50 53 51 39 36 34 30 21 21 21 18 15 16 17 14 13 17 19 25 30 31 33 37 39 40 44 46 47 50 52 55 60 59 56
77 49 76 72 67 65 62 60 61 61 59 55 42 35 32 33 28 27 24 21 18 14 12 9 7 11 13 17 21 26 31 36 37 37 39 41 44 46 50 52 54 59 62 63
50 67 79 77 73 70 64 61 61 63 56 51 43 38 34 29 29 28 27 22 14 13 11 8 9 11 12 14 19 23 28 34 36 36 38 42 45 46 49 52 57 60 63 66
82 63 77 76 76 71 63 55 49 57 54 49 42 40 34 32 31 31 27 22 17 15 13 12 11 11 9 14 20 25 29 32 35 35 38 40 43 46 49 52 54 57 58 58
54 69 71 73 76 70 62 52 50 51 47 43 43 39 34 31 30 30 26 23 19 16 15 14 13 12 11 15 21 26 29 31 33 35 35 37 40 44 49 52 55 57 59 63
51 66 64 65 63 60 55 53 49 45 43 42 42 39 33 30 29 29 27 23 19 15 18 15 14 12 12 17 22 25 26 28 29 31 31 33 40 46 53 56 59 62 67 69
60 60 62 63 58 50 52 49 45 44 42 43 45 42 40 35 31 28 27 23 20 15 13 11 8 10 13 17 21 23 24 26 27 29 32 37 44 48 51 55 59 62 66 68
62 62 64 61 55 47 43 46 46 46 47 45 41 39 37 36 31 25 26 24 21 17 12 8 7 9 10 13 16 18 20 23 24 29 35 39 41 45 49 52 58 62 64 66
64 64 63 58 54 52 47 44 43 44 46 46 41 39 39 37 35 29 23 14 15 16 11 7 4 4 7 10 12 14 17 20 24 30 33 36 39 43 48 52 54 56 58 60
63 60 59 57 55 52 50 47 44 43 46 47 43 41 35 30 28 27 24 22 18 15 12 7 5 3 4 6 9 12 14 17 23 26 30 33 36 40 44 46 48 50 53 55
63 62 58 56 54 53 55 54 46 44 40 39 35 33 35 36 32 28 21 19 20 15 13 11 7 5 4 5 7 9 12 16 20 22 27 30 35 35 37 40 43 45 47 49
63 63 59 57 56 55 54 53 51 49 46 42 41 38 33 26 17 20 22 21 20 17 15 15 11 7 7 6 7 9 11 14 17 21 25 28 29 30 32 35 38 40 43 45
65 63 58 54 51 53 53 53 51 51 50 48 44 40 38 35 28 23 24 22 21 21 19 17 14 11 10 9 10 9 10 12 15 20 24 24 24 25 28 31 32 34 38 40
64 59 56 54 51 50 49 48 48 48 46 43 39 40 38 34 30 26 24 26 26 25 23 22 19 16 14 13 12 11 12 12 15 18 19 18 18 20 22 25 28 30 32 32
Wind_Direction_850mb
109 104 93 98 77 52 61 124 126 160 143 161 156 156 162 161 163 161 166 169 162 143 85 92 65 51 20 6 3 359 360 1 5 6 12 5 1 355 353 351 348 345 344 344
44 77 85 78 84 87 86 88 86 112 88 141 154 157 160 164 156 144 158 154 145 124 103 90 69 49 22 12 3 355 1 11 8 16 11 7 5 4 360 1 359 355 354 348
62 98 83 36 337 90 98 97 130 144 152 127 104 115 149 143 154 150 144 138 123 102 94 84 77 61 23 6 352 353 10 11 23 16 12 10 7 7 10 9 5 5 4 0
147 37 62 251 103 118 110 112 106 103 115 109 106 99 118 140 145 138 135 126 113 101 102 100 76 27 356 347 352 9 13 26 25 17 12 9 6 10 14 14 13 11 11 9
116 91 325 102 171 140 129 87 130 124 125 122 118 112 83 121 125 125 121 112 112 112 102 83 17 2 357 1 22 35 37 28 23 15 12 9 9 12 15 15 15 15 15 14
87 127 194 225 154 126 109 111 173 143 151 155 156 94 157 134 125 119 116 115 116 111 94 21 24 2 6 41 38 36 29 20 18 13 15 10 11 12 15 14 12 16 18 19
112 129 302 181 146 129 97 216 164 160 157 158 110 145 146 139 124 121 122 119 124 119 47 47 21 2 42 45 39 29 23 16 12 11 15 13 14 14 12 11 10 19 20 21
87 85 206 160 95 138 144 119 151 160 160 127 124 129 135 134 129 130 129 135 133 65 62 36 13 24 64 39 32 25 17 16 14 11 15 17 15 14 12 12 12 18 18 20
140 206 344 158 130 134 143 133 132 137 140 137 134 136 135 131 132 137 144 146 113 57 61 66 73 76 57 35 18 7 6 19 19 23 19 19 15 14 16 14 14 17 17 18
85 5 83 113 126 132 134 131 134 132 136 137 134 136 132 134 141 145 152 142 91 53 54 81 79 58 41 23 15 10 14 21 21 23 20 19 18 16 19 18 16 20 16 17
74 101 96 110 133 132 127 130 132 134 136 135 135 137 138 143 146 148 150 145 141 53 90 97 80 53 34 25 21 23 17 20 21 20 18 20 21 17 23 26 25 26 20 21
198 172 136 148 144 143 138 141 141 138 137 138 141 142 146 148 151 148 148 146 134 113 102 96 69 50 39 30 26 26 25 20 18 18 16 17 18 25 29 32 32 35 31 27
142 154 147 147 148 149 145 148 147 143 144 146 148 150 153 148 148 146 138 133 128 115 108 92 82 66 50 29 22 28 24 20 18 18 15 16 18 21 24 35 37 35 35 34
146 141 133 152 149 152 149 149 147 146 149 153 155 157 151 149 146 145 134 130 126 118 104 77 70 66 42 28 16 26 26 20 19 17 17 18 21 25 27 31 31 33 36 34
149 159 156 153 151 150 151 152 152 153 157 158 160 155 156 150 148 144 139 133 126 114 96 69 78 61 30 19 15 20 22 19 16 15 16 19 24 30 33 35 37 33 32 38
151 150 150 152 153 155 158 161 159 161 164 161 160 157 154 153 148 142 134 129 126 126 112 96 78 62 33 21 18 19 16 14 15 15 19 23 28 33 35 37 38 35 32 31
140 137 153 155 159 162 168 171 169 165 165 164 165 161 159 156 149 142 139 133 127 118 108 96 78 69 51 23 15 14 10 14 17 23 26 29 32 34 36 39 39 38 35 32
177 171 171 166 165 168 171 171 169 167 168 169 168 165 164 160 150 143 140 131 127 121 116 105 85 83 57 27 14 14 14 17 23 30 31 34 37 40 43 45 46 46 44 43
176 170 170 168 170 173 170 168 170 170 170 171 169 163 159 155 151 145 142 137 130 131 125 118 99 77 44 28 17 20 20 24 31 37 38 40 45 50 55 55 52 50 48 45
169 169 170 171 174 172 167 170 170 171 172 171 169 167 162 160 158 154 148 144 141 143 129 121 105 59 39 27 20 22 28 34 39 44 48 54 59 59 57 55 54 52 50 49
167 170 172 172 170 171 172 170 173 172 171 176 176 171 167 163 161 158 157 161 156 152 147 132 84 51 33 17 25 33 39 44 47 57 64 64 61 60 58 57 57 56 53 52
170 172 173 172 173 171 173 174 175 174 171 171 173 175 174 169 165 160 157 174 160 157 167 159 116 53 30 36 40 46 48 53 63 71 70 66 63 63 62 61 58 55 53 51
173 174 174 175 176 173 170 173 175 178 175 176 178 181 179 176 171 176 176 169 169 172 178 170 148 108 62 56 58 59 62 71 76 76 73 70 68 67 65 61 56 52 49 47
175 175 176 176 177 176 173 171 174 176 179 176 178 180 180 178 176 174 185 180 176 185 182 180 177 154 125 101 84 81 87 83 81 78 77 76 76 71 64 58 53 49 46 44
177 177 178 179 181 180 177 173 172 175 177 177 178 183 184 184 200 196 184 186 193 195 192 193 197 190 166 149 129 114 103 94 88 87 85 84 80 72 62 55 49 46 45 43
179 181 182 186 185 182 181 181 182 181 182 183 184 187 188 193 195 196 200 198 203 204 203 206 209 206 192 175 158 137 121 111 101 100 97 89 79 68 58 51 47 43 42 41
183 184 183 182 186 188 189 190 190 190 189 193 195 191 194 198 201 209 213 212 210 213 212 213 211 210 202 193 178 163 146 135 124 116 108 97 80 68 57 48 43 39 38 38